Location: Newark
(40.9833°N, 0.0333°W)
Time: 01:29:09
(UTC+00:00)

deb Explorer IX - Pass Details

Date: 05 November 2020
Orbit: 537 x 1105 km, 38.8° (Epoch: 02 December)

Event Time Altitude Azimuth Distance (km) Brightness Sun altitude
Rises 09:12:29 0° 267° (W) 3,612 ? 23.2°
Reaches altitude 10° 09:17:59 10° 229° (SW) 2,807 ? 23.9°
Maximum altitude 09:19:05 10° 220° (SW) 2,799 ? 24.0°
Drops below altitude 10° 09:20:11 10° 211° (SSW) 2,850 ? 24.1°
Sets 09:26:06 0° 174° (S) 3,884 ? 24.8°
